Location: Newark
(34.1333°N, 7.9667°W)
Time: 11:36:50
(UTC+00:00)

A-11 Canister half - Visible Passes

Search period start: 13 June 2021 00:00
Search period end: 23 June 2021 00:00
Orbit: 1527 x 1681 km, 47.3° (Epoch: 12 June)

Date Brightness Start Highest point End Pass type
(mag) Time Alt. Az. Time Alt. Az. Time Alt. Az.
13 Jun 9.5 02:05:27 19° W 02:12:16 51° NNW 02:21:19 10° NE visible
13 Jun 10.3 04:10:43 10° WNW 04:19:07 36° N 04:27:38 10° ENE visible
13 Jun 8.9 23:45:42 61° SE 23:45:42 61° SE 23:54:29 10° ENE visible
14 Jun 9.5 01:43:53 20° W 01:50:34 53° NNW 01:59:38 10° NE visible
14 Jun 10.3 03:48:58 10° WNW 03:57:22 36° N 04:05:52 10° ENE visible
14 Jun 8.9 23:23:54 58° SE 23:23:54 58° SE 23:32:48 10° ENE visible
15 Jun 9.4 01:22:04 19° W 01:28:52 55° NNW 01:37:58 10° NE visible
15 Jun 10.3 03:27:13 10° WNW 03:35:37 36° N 03:44:06 10° ENE visible
15 Jun 8.9 23:01:36 54° SSE 23:02:08 55° SE 23:11:07 10° ENE visible
16 Jun 9.4 00:59:43 17° W 01:07:10 56° NNW 01:16:18 10° NE visible
16 Jun 10.2 03:05:28 10° WNW 03:13:52 36° N 03:22:20 10° ENE visible
16 Jun 9.0 22:38:06 43° S 22:40:31 52° SE 22:49:25 10° ENE visible
17 Jun 9.3 00:36:15 10° WSW 00:45:28 59° NNW 00:54:39 10° NE visible
17 Jun 10.2 02:43:42 10° WNW 02:52:07 36° N 03:00:34 10° ENE visible
17 Jun 10.0 04:50:03 10° NW 04:59:02 49° NNE 05:08:09 10° E visible
17 Jun 9.0 22:09:54 10° SSW 22:18:54 49° SE 22:27:44 10° ENE visible
18 Jun 9.3 00:14:29 10° WSW 00:23:47 61° NNW 00:32:59 10° NE visible
18 Jun 10.2 02:21:56 10° WNW 02:30:22 36° N 02:38:50 10° ENE visible
18 Jun 10.0 04:28:23 10° NW 04:37:19 48° NNE 04:46:22 10° E visible
18 Jun 9.1 21:48:22 10° SSW 21:57:18 46° SE 22:06:02 10° ENE visible
18 Jun 9.3 23:52:45 10° WSW 00:02:06 63° NNW 00:11:20 10° NE visible
19 Jun 10.2 02:00:10 10° WNW 02:08:37 37° N 02:17:06 10° ENE visible
19 Jun 10.0 04:06:42 10° NW 04:15:36 47° NNE 04:24:35 10° E visible
19 Jun 9.2 21:26:51 10° SSW 21:35:41 44° SE 21:44:19 10° ENE visible
19 Jun 9.2 23:31:02 10° WSW 23:40:25 65° NNW 23:49:41 10° NE visible
20 Jun 10.2 01:38:23 10° WNW 01:46:53 37° N 01:55:21 10° ENE visible
20 Jun 10.0 03:45:01 10° NW 03:53:53 45° NNE 04:02:49 10° E visible
20 Jun 9.2 21:05:19 10° SSW 21:14:04 41° SE 21:22:37 10° ENE visible
20 Jun 9.2 23:09:17 10° WSW 23:18:44 68° NNW 23:28:02 10° NE visible
21 Jun 10.2 01:16:36 10° WNW 01:25:08 37° N 01:33:37 10° ENE visible
21 Jun 10.0 03:23:21 10° NW 03:32:10 44° NNE 03:41:02 10° E visible
21 Jun 9.3 20:43:49 10° SSW 20:52:27 39° SE 21:00:53 10° ENE visible
21 Jun 9.1 22:47:34 10° WSW 22:57:03 71° NNW 23:06:23 10° NE visible
22 Jun 10.1 00:54:49 10° WNW 01:03:23 38° N 01:11:54 10° ENE visible
22 Jun 10.1 03:01:40 10° NW 03:10:26 43° NNE 03:19:14 10° E visible
22 Jun 9.4 20:22:20 10° SSW 20:30:51 37° SE 20:39:09 10° ENE visible
22 Jun 9.1 22:25:51 10° WSW 22:35:23 74° NNW 22:44:44 10° NE visible
